Location: Davayat
(45.9471°N, 3.1105°E)
Time: 18:14:08
(UTC+00:00)

Cosmos 773 Rocket - Pass Details

Date: 01 December 2020
Orbit: 746 x 776 km, 74.1° (Epoch: 18 January)

Event Time Altitude Azimuth Distance (km) Brightness Sun altitude
Rises 16:40:34 0° 183° (S) 3,223 7.6 -6.4°
Reaches altitude 10° 16:42:59 10° 178° (S) 2,305 6.8 -6.8°
Maximum altitude 16:48:00 48° 105° (ESE) 1,002 4.3 -7.6°
Drops below altitude 10° 16:53:05 10° 32° (NNE) 2,334 6.0 -8.4°
Enters shadow 16:54:42 - 28° (NNE) 2,946 6.6 -8.7°
